Albany, NY

1:07 AM EST on December 06, 2019 (GMT -0500)
Albany International

Weather History for KALB - October, 2019

Change the Weather History Date:

Monday, October 28, 2019

  Actual Average Record
Temperature  
Mean Temperature 52 °F 46 °F  
Max Temperature 60 °F 55 °F 78 °F (1971)
Min Temperature 45 °F 36 °F 18 °F (1974)
Degree Days  
Heating Degree Days 12 19  
Month to date heating degree days 344 419  
Since 1 July heating degree days 421 586  
Cooling Degree Days 0 0  
Month to date cooling degree days 4 0  
Year to date cooling degree days 771 594  
Growing Degree Days 2 (Base 50)    
Moisture  
Dew Point 46 °F    
Average Humidity 74    
Maximum Humidity 89    
Minimum Humidity 60    
Precipitation  
Precipitation 0.00 in 0.11 in 1.60 in (2006)
Month to date precipitation 6.71 3.33  
Year to date precipitation 37.92 32.78  
Snow  
Snow 0.00 in 0.00 in 2.00 in (1952)
Month to date snowfall 0.0 0.2  
Since 1 July snowfall 0.0 0.2  
Since 1 September snowfall 0.0 0.2  
Snow Depth 0.00 in    
Sea Level Pressure  
Sea Level Pressure 30.15 in    
Wind  
Wind Speed 5 mph ()    
Max Wind Speed 16 mph    
Max Gust Speed 22 mph    
Visibility 10.0 miles    
Events      
T = Trace of Precipitation, MM = Missing Value Source: Averaged Metar Reports

Daily Weather History Graph

Daily Weather History Graph

Search for Another Location

Airport or City:

Astronomy

Oct. 28, 2019 Rise Set
Actual Time 7:23 AM EDT 5:53 PM EDT
Civil Twilight 6:54 AM EDT 6:22 PM EDT
Nautical Twilight 6:21 AM EDT 6:55 PM EDT
Astronomical Twilight 5:48 AM EDT 7:28 PM EDT
Moon 7:41 AM EDT (10/28) 6:36 PM EDT (10/28)
Length of Visible Light 11h 27m
Length of Day
10h 29m
New Moon, 0% of the Moon is Illuminated
Oct 28
New Moon
Nov 4
First Quarter
Nov 12
Full
Nov 19
Last Quarter
Nov 26
New

Hourly Weather History & Observations

Time (EDT) Temp. Dew Point Humidity Pressure Visibility Wind Dir Wind Speed Gust Speed Precip Events Conditions
12:08 AM 51.1 °F 48.0 °F 89% 29.92 in 10.0 mi South 3.5 mph - N/A   Overcast
12:51 AM 51.1 °F 48.0 °F 89% 29.94 in 10.0 mi Calm Calm - N/A   Overcast
1:51 AM 52.0 °F 48.0 °F 86% 29.96 in 10.0 mi Calm Calm - N/A   Overcast
2:51 AM 54.0 °F 48.9 °F 83% 29.99 in 10.0 mi West 4.6 mph - N/A   Overcast
3:51 AM 55.0 °F 48.0 °F 77% 30.02 in 10.0 mi WNW 11.5 mph - N/A   Overcast
4:51 AM 54.0 °F 46.9 °F 77% 30.04 in 10.0 mi West 13.8 mph - N/A   Overcast
5:51 AM 54.0 °F 46.0 °F 75% 30.07 in 10.0 mi West 13.8 mph - N/A   Overcast
6:51 AM 53.1 °F 46.0 °F 77% 30.09 in 10.0 mi WNW 9.2 mph - N/A   Overcast
7:51 AM 54.0 °F 46.0 °F 75% 30.14 in 10.0 mi WNW 13.8 mph - N/A   Overcast
8:51 AM 54.0 °F 46.0 °F 75% 30.17 in 10.0 mi West 9.2 mph - N/A   Overcast
9:51 AM 55.9 °F 46.0 °F 69% 30.19 in 10.0 mi WNW 3.5 mph - N/A   Mostly Cloudy
10:51 AM 57.9 °F 46.9 °F 67% 30.20 in 10.0 mi Calm Calm - N/A   Overcast
11:51 AM 59.0 °F 46.9 °F 64% 30.21 in 10.0 mi Variable 3.5 mph - N/A   Overcast
12:44 PM 57.9 °F 46.0 °F 65% 30.20 in 10.0 mi West 9.2 mph - N/A   Overcast
12:51 PM 59.0 °F 46.9 °F 64% 30.21 in 10.0 mi West 8.1 mph - N/A   Overcast
1:51 PM 59.0 °F 46.0 °F 62% 30.20 in 10.0 mi Calm Calm - N/A   Overcast
2:51 PM 60.1 °F 46.0 °F 60% 30.20 in 10.0 mi South 6.9 mph - N/A   Overcast
3:51 PM 60.1 °F 46.0 °F 60% 30.21 in 10.0 mi South 5.8 mph - N/A   Overcast
4:51 PM 60.1 °F 46.0 °F 60% 30.21 in 10.0 mi South 6.9 mph - N/A   Overcast
5:51 PM 59.0 °F 46.9 °F 64% 30.22 in 10.0 mi South 3.5 mph - N/A   Mostly Cloudy
6:11 PM 59.0 °F 46.0 °F 62% 30.23 in 10.0 mi South 3.5 mph - N/A   Mostly Cloudy
6:51 PM 54.0 °F 46.9 °F 77% 30.24 in 10.0 mi SE 4.6 mph - N/A   Scattered Clouds
7:51 PM 48.9 °F 44.1 °F 83% 30.25 in 10.0 mi Calm Calm - N/A   Partly Cloudy
8:51 PM 48.0 °F 44.1 °F 86% 30.25 in 10.0 mi Calm Calm - N/A   Partly Cloudy
9:51 PM 48.9 °F 44.1 °F 83% 30.26 in 10.0 mi Calm Calm - N/A   Partly Cloudy
10:51 PM 46.0 °F 42.1 °F 86% 30.26 in 10.0 mi Calm Calm - N/A   Partly Cloudy
11:51 PM 48.9 °F 44.1 °F 83% 30.26 in 10.0 mi SSE 4.6 mph - N/A   Scattered Clouds